EW1895 Weather Reports


time (UTC)temp
C
wind
direction
speed
KPH
gust
KPH
rain 1hr
cm
rain 24hr
cm
rain mn
cm
humidity
%
barometer
mb
20260905221508 25 324 0.0 0.0 0.00 0.00 0.00 87 1011.0
20260905220008 25 324 0.0 0.0 0.00 0.00 0.00 86 1010.7
20260905214506 25 324 0.0 0.0 0.00 0.00 0.00 87 1010.8
20260905213005 25 324 0.0 0.0 0.00 0.00 0.00 84 1010.8
20260905211504 25 324 0.0 0.0 0.00 0.00 0.00 83 1010.8
20260905210010 25 324 0.0 0.0 0.00 0.00 0.00 85 1010.8
20260905204503 25 324 0.0 0.0 0.00 0.00 0.00 86 1010.8
20260905203003 25 324 0.0 0.0 0.00 0.00 0.00 84 1010.8
20260905201503 25 324 0.0 0.0 0.00 0.00 0.00 87 1010.9
20260905200002 24 324 0.0 0.0 0.00 0.00 0.00 92 1010.8
20260905194502 23 324 0.0 0.0 0.00 0.00 0.00 94 1010.9
20260905193109 23 324 0.0 0.0 0.00 0.00 0.00 94 1011.1
20260905191600 23 324 0.0 0.0 0.00 0.00 0.00 95 1011.6
20260905184558 23 324 0.0 0.0 0.00 0.00 0.00 95 1012.2
20260905183059 23 324 0.0 0.0 0.00 0.00 0.00 95 1012.2
20260905181601 23 324 0.0 0.0 0.00 0.00 0.00 94 1011.7
20260905180101 23 324 0.0 0.0 0.00 0.00 0.00 95 1011.3
20260905174557 23 324 0.0 1.6 0.00 0.00 0.00 95 1011.6
20260905173057 22 338 0.0 1.6 0.00 0.00 0.00 95 1011.5
20260905171556 21 341 0.0 0.0 0.00 0.00 0.00 94 1011.4
20260905170059 21 340 0.0 0.0 0.00 0.00 0.00 93 1012.4
20260905164535 21 340 0.0 0.0 0.00 0.00 0.00 92 1013.1
20260905163036 22 340 0.0 11.3 0.00 0.00 0.00 89 1013.5
20260905161556 25 325 1.6 11.3 0.00 0.00 0.00 86 1014.0
20260905160055 26 321 0.0 0.0 0.00 0.00 0.00 84 1013.0
20260905154556 26 319 0.0 0.0 0.00 0.00 0.00 84 1012.4
20260905153052 26 319 0.0 0.0 0.00 0.00 0.00 84 1012.3
20260905151554 26 319 0.0 0.0 0.00 0.00 0.00 83 1012.2
20260905150057 26 319 0.0 0.0 0.00 0.00 0.00 82 1012.4
20260905144553 26 319 0.0 0.0 0.00 0.00 0.00 83 1012.4
20260905143054 26 319 0.0 4.8 0.00 0.00 0.00 80 1012.3
20260905141545 26 329 0.0 3.2 0.00 0.00 0.00 84 1012.3
20260905140041 25 323 0.0 4.8 0.00 0.00 0.00 89 1012.1
20260905134536 23 313 0.0 1.6 0.00 0.00 0.00 94 1012.0
20260905133032 23 313 0.0 0.0 0.00 0.00 0.00 97 1012.0
20260905131544 22 264 0.0 1.6 0.00 0.00 0.00 97 1011.9
20260905130027 22 151 0.0 0.0 0.00 0.00 0.00 97 1011.9
20260905124527 22 151 0.0 0.0 0.00 0.00 0.00 97 1011.6
20260905123021 21 151 0.0 0.0 0.00 0.00 0.00 97 1011.7
20260905121520 21 151 0.0 0.0 0.00 0.00 0.00 97 1011.8
20260905120017 20 151 0.0 0.0 0.00 0.00 0.00 96 1012.0
20260905114524 20 151 0.0 0.0 0.00 0.00 0.00 96 1011.9
20260905113023 20 151 0.0 0.0 0.00 0.00 0.00 96 1011.8
20260905111512 20 151 0.0 0.0 0.00 0.00 0.00 96 1011.6
20260905110012 20 151 0.0 0.0 0.00 0.00 0.00 96 1011.4
20260905104518 20 151 0.0 0.0 0.00 0.00 0.00 96 1011.3
20260905103019 20 151 0.0 0.0 0.00 0.00 0.00 96 1011.1
20260905101508 20 151 0.0 0.0 0.00 0.00 0.00 96 1011.0
20260905100017 20 151 0.0 0.0 0.00 0.00 0.00 96 1010.8
20260905094511 20 151 0.0 0.0 0.00 0.00 0.00 96 1010.8
20260905093006 20 151 0.0 0.0 0.00 0.00 0.00 96 1010.6
20260905091505 20 151 0.0 0.0 0.00 0.00 0.00 96 1010.7
20260905090004 20 151 0.0 0.0 0.00 0.00 0.00 96 1010.7
20260905084501 20 151 0.0 0.0 0.00 0.00 0.00 96 1010.6
20260905083100 20 151 0.0 0.0 0.00 0.00 0.00 96 1010.7
20260905081605 20 151 0.0 0.0 0.00 0.00 0.00 96 1010.8
20260905074558 20 151 0.0 0.0 0.00 0.00 0.00 96 1011.0
20260905073057 20 151 0.0 0.0 0.00 0.00 0.00 96 1011.2
20260905071557 20 151 0.0 0.0 0.00 0.00 0.00 96 1011.3
20260905070059 21 151 0.0 0.0 0.00 0.00 0.00 96 1011.4
20260905064600 21 151 0.0 0.0 0.00 0.00 0.00 96 1011.4
20260905063101 20 151 0.0 0.0 0.00 0.00 0.00 96 1011.4
20260905061609 20 151 0.0 0.0 0.00 0.00 0.00 96 1011.8
20260905060051 21 151 0.0 0.0 0.00 0.00 0.00 96 1012.0
20260905054549 20 151 0.0 0.0 0.00 0.00 0.00 96 1012.2
20260905053053 20 151 0.0 0.0 0.00 0.00 0.00 96 1012.7
20260905051546 21 151 0.0 0.0 0.00 0.00 0.00 96 1012.9
20260905050043 21 151 0.0 0.0 0.00 0.00 0.00 96 1013.0
20260905044541 21 151 0.0 0.0 0.00 0.00 0.00 96 1013.3
20260905043040 21 151 0.0 0.0 0.00 0.00 0.00 96 1013.5
20260905041537 21 151 0.0 0.0 0.00 0.00 0.00 96 1013.6
20260905040036 21 151 0.0 0.0 0.00 0.00 0.00 96 1013.6
20260905034535 21 151 0.0 0.0 0.00 0.00 0.00 96 1013.6
20260905033036 21 151 0.0 0.0 0.00 0.00 0.00 96 1013.6
20260905031531 21 151 0.0 0.0 0.00 0.00 0.00 96 1013.6
20260905030034 21 151 0.0 0.0 0.00 0.00 0.00 96 1013.6
20260905023012 21 151 0.0 0.0 0.00 0.00 0.00 96 1013.6
20260905021510 21 151 0.0 0.0 0.00 0.00 0.00 95 1013.6
20260905020020 21 151 0.0 0.0 0.00 0.00 0.00 95 1013.6
20260905014508 20 151 0.0 0.0 0.00 0.00 0.00 95 1013.1
20260905013005 21 151 0.0 0.0 0.00 0.00 0.00 95 1012.8
20260905011505 21 151 0.0 0.0 0.00 0.00 0.00 95 1012.5
20260905010006 21 151 0.0 0.0 0.00 0.00 0.00 95 1012.5
20260905004504 21 151 0.0 0.0 0.00 0.00 0.00 95 1012.5
20260905003101 21 151 0.0 0.0 0.00 0.00 0.00 95 1012.4
20260905001557 21 151 0.0 0.0 0.00 0.00 0.00 95 1011.7